This demonstration page uses our WeatherBlox Daily Observations layout. Learn more.

Left ArrowRight Arrow

Hourly Observations for August 28, 2018

Temp ( °F °C ) Dew Point ( °F °C ) Humidity (%) Winds ( mph kmh ) Pressure ( in mb ) Visibility ( mi km ) Precip ( " mm )
12:59 am 00:59 Mostly Clear 79 26.1 73 22.8 82 82 SSW 6 9 30.12 1020 9 14 0.00 0.00
1:59 am 01:59 Mostly Clear 79 26.1 72 22.2 79 79 SW 6 9 30.11 1020 9 14 0.00 0.00
2:59 am 02:59 Mostly Clear 78 25.6 72 22.2 82 82 SW 8 13 30.11 1020 9 14 0.00 0.00
3:59 am 03:59 Partly Cloudy 77 25 70 21.1 79 79 SW 8 13 30.11 1020 10 16 0.00 0.00
4:59 am 04:59 Partly Cloudy 77 25 71 21.7 82 82 SW 7 11 30.11 1020 10 16 0.00 0.00
5:59 am 05:59 Partly Cloudy 75 23.9 71 21.7 88 88 SW 3 6 30.13 1020 9 14 0.00 0.00
6:59 am 06:59 Mostly Cloudy 76 24.4 71 21.7 85 85 SW 5 7 30.16 1021 8 13 0.00 0.00
7:59 am 07:59 Mostly Cloudy 78 25.6 72 22.2 82 82 SW 6 9 30.16 1021 8 13 0.00 0.00
8:59 am 08:59 Mostly Cloudy 80 26.7 71 21.7 74 74 WSW 8 13 30.16 1021 8 13 0.00 0.00
9:59 am 09:59 Partly Cloudy 84 28.9 72 22.2 67 67 SW 5 7 30.17 1022 8 13 0.00 0.00
10:59 am 10:59 Partly Cloudy 87 30.6 73 22.8 63 63 WSW 6 9 30.17 1022 8 13 0.00 0.00
11:59 am 11:59 Mostly Cloudy 89 31.7 73 22.8 59 59 SW 9 15 30.16 1021 8 13 0.00 0.00
12:59 pm 12:59 Mostly Cloudy 91 32.8 73 22.8 56 56 SSW 6 9 30.14 1021 8 13 0.00 0.00
1:59 pm 13:59 Mostly Cloudy 92 33.3 73 22.8 54 54 SW 9 15 30.14 1021 8 13 0.00 0.00
2:59 pm 14:59 Mostly Cloudy 92 33.3 72 22.2 52 52 VRB 3 6 30.12 1020 8 13 0.00 0.00
3:59 pm 15:59 Mostly Cloudy 92 33.3 72 22.2 52 52 W 8 13 30.11 1020 8 13 0.00 0.00
4:59 pm 16:59 Mostly Cloudy 92 33.3 72 22.2 52 52 WSW 7 11 30.11 1020 8 13 0.00 0.00
5:59 pm 17:59 Mostly Cloudy 91 32.8 72 22.2 54 54 WSW 9 15 30.10 1019 8 13 0.00 0.00
6:59 pm 18:59 Partly Cloudy 88 31.1 73 22.8 61 61 SW 7 11 30.10 1019 8 13 0.00 0.00
7:59 pm 19:59 Partly Cloudy 85 29.4 73 22.8 68 68 SSW 6 9 30.10 1019 8 13 0.00 0.00
8:59 pm 20:59 Partly Cloudy 84 28.9 73 22.8 70 70 SSW 6 9 30.10 1019 9 14 0.00 0.00
9:59 pm 21:59 Partly Cloudy 83 28.3 73 22.8 72 72 SSW 6 9 30.10 1019 9 14 0.00 0.00
10:59 pm 22:59 Partly Cloudy 82 27.8 73 22.8 74 74 SSW 6 9 30.11 1020 9 14 0.00 0.00
11:59 pm 23:59 Partly Cloudy 81 27.2 73 22.8 77 77 SSW 9 15 30.12 1020 9 14 0.00 0.00

Powered by AerisWeather